Home   Weather   Newman   Past weeks
Flag for Australia

Past Weather in Newman, Western Australia, Australia — Yesterday and Last 2 Weeks

Now
80 °F

Scattered clouds.


Feels Like: 82 °F
Forecast: 100 / 79 °F
Wind: 6 mph from South

Location: Newman Aerodrome

Current Time: Feb 17, 2020 at 8:41:24 am

Latest Report: Feb 17, 2020 at 6:00 am


Visibility: N/A

Pressure: 29.78 "Hg (27.98 "Hg at 546m altitude)

Humidity: 61%

Dew Point: 65 °F

Location of NewmanLocation

Past Weather in Newman — Graph

°F

Newman Temperature Yesterday

Maximum temperature yesterday: 104 °F (at 3:00 pm)
Minimum temperature yesterday: 81 °F (at 6:00 am)
Average temperature yesterday: 93 °F

High & Low Weather Summary for the Past Weeks

 TemperatureHumidityPressure
High106 °F (Feb 15, 3:00 pm)93% (Feb 9, 2:00 pm)29.88 "Hg (Feb 9, 2:00 pm)
Low74 °F (Feb 10, 6:00 am)7% (Feb 4, 3:00 pm)29.50 "Hg (Feb 9, 2:00 pm)
Average88 °F45%29.72 "Hg
* Reported Feb 2 6:00 am — Feb 17 6:00 am, Newman. Weather by CustomWeather, © 2020

Note: Actual official high and low records may vary slightly from our data, if they occured in-between our weather recording intervals... More about our weather records

Newman Weather History for the Previous 24 Hours

Scroll right to see more
 ConditionsComfort  
Time TempWeatherWind HumidityBarometerVisibility
6:00 am
Mon, Feb 17
80 °FScattered clouds.6 mph61%29.78 "HgN/A
5:00 am81 °FWarm.7 mph57%29.78 "HgN/A
3:00 am84 °FWarm.8 mph50%29.77 "HgN/A
2:00 am85 °FWarm.8 mph42%29.76 "HgN/A
12:00 am89 °FPassing clouds.8 mph37%29.76 "HgN/A
11:00 pm
Sun, Feb 16
90 °FHot.9 mph35%29.76 "HgN/A
9:00 pm93 °FOvercast.9 mph33%29.74 "HgN/A
8:00 pm96 °FExtremely hot.6 mph26%29.71 "HgN/A
6:00 pm101 °FExtremely hot.7 mph20%29.66 "HgN/A
5:00 pm104 °FExtremely hot.12 mph18%29.65 "HgN/A
3:00 pm104 °FExtremely hot.7 mph20%29.67 "HgN/A
2:00 pm103 °FExtremely hot.7 mph21%29.70 "HgN/A
12:00 pm100 °FExtremely hot.8 mph24%29.74 "HgN/A
11:00 am99 °FExtremely hot.6 mph25%29.76 "HgN/A
9:00 am92 °FHot.8 mph38%29.78 "HgN/A
8:00 am90 °FHot.10 mph38%29.78 "HgN/A
Weather by CustomWeather, © 2020

See weather overview

Advertising